• In Hungary
  • List of Countries
  • For 7 days
  • Water Temperature
  • Satellite Maps
  • Weather Map
  • News
  • Weather Widgets
  • user-avatar
    Login

    Hourly Weather Tavakanovo

    Today, 15 November, Thursday

    Time Temperature Precipitation Wind Pressure Humidity
    00:00 -7°C° 0 mm 1 mps 751 mmHg 52%
    01:00 -7°C° 0 mm 1 mps 751 mmHg 52%
    02:00 -7°C° 0 mm 1 mps 751 mmHg 52%
    03:00 -7°C° 0 mm 1 mps 751 mmHg 51%
    04:00 -8°C° 0 mm 1 mps 751 mmHg 52%
    05:00 -8°C° 0 mm 1 mps 751 mmHg 52%
    06:00 -8°C° 0 mm 1 mps 751 mmHg 52%
    07:00 -8°C° 0 mm 1 mps 751 mmHg 52%
    08:00 -7°C° 0 mm 1 mps 751 mmHg 50%
    09:00 -6°C° 0 mm 1 mps 751 mmHg 49%
    10:00 -4°C° 0 mm 1 mps 752 mmHg 47%
    11:00 -3°C° 0 mm 1 mps 752 mmHg 45%
    12:00 -2°C° 0 mm 1 mps 752 mmHg 43%
    13:00 -1°C° 0 mm 1 mps 752 mmHg 42%
    14:00 -2°C° 0 mm 1 mps 752 mmHg 45%
    15:00 -3°C° 0 mm 1 mps 752 mmHg 49%
    16:00 -3°C° 0 mm 1 mps 752 mmHg 52%
    17:00 -4°C° 0 mm 1 mps 752 mmHg 53%
    18:00 -4°C° 0 mm 1 mps 752 mmHg 53%
    19:00 -7°C° 0 mm 2 mps 752 mmHg 54%
    20:00 -7°C° 0 mm 2 mps 753 mmHg 53%
    21:00 -6°C° 0 mm 1 mps 753 mmHg 53%
    22:00 -6°C° 0 mm 1 mps 753 mmHg 52%
    23:00 -6°C° 0 mm 1 mps 753 mmHg 52%

    Tomorrow, 16 November, Friday

    Time Temperature Precipitation Wind Pressure Humidity
    00:00 -6°C° 0 mm 1 mps 753 mmHg 51%
    01:00 -6°C° 0 mm 1 mps 753 mmHg 51%
    02:00 -6°C° 0 mm 1 mps 753 mmHg 51%
    03:00 -7°C° 0 mm 1 mps 753 mmHg 51%
    04:00 -7°C° 0 mm 1 mps 753 mmHg 50%
    05:00 -7°C° 0 mm 1 mps 753 mmHg 50%
    06:00 -7°C° 0 mm 1 mps 753 mmHg 50%
    07:00 -7°C° 0 mm 1 mps 753 mmHg 50%
    08:00 -6°C° 0 mm 1 mps 754 mmHg 48%
    09:00 -4°C° 0 mm 1 mps 754 mmHg 47%
    10:00 -3°C° 0 mm 1 mps 754 mmHg 46%
    11:00 -3°C° 0 mm 1 mps 754 mmHg 44%
    12:00 -2°C° 0 mm 1 mps 754 mmHg 42%
    13:00 -1°C° 0 mm 1 mps 754 mmHg 40%
    14:00 -2°C° 0 mm 1 mps 753 mmHg 44%
    15:00 -2°C° 0 mm 1 mps 753 mmHg 47%
    16:00 -3°C° 0 mm 1 mps 753 mmHg 51%
    17:00 -4°C° 0 mm 1 mps 753 mmHg 52%
    18:00 -4°C° 0 mm 1 mps 753 mmHg 52%
    19:00 -6°C° 0 mm 1 mps 753 mmHg 53%
    20:00 -6°C° 0 mm 1 mps 752 mmHg 54%
    21:00 -6°C° 0 mm 1 mps 752 mmHg 55%
    22:00 -6°C° 0 mm 1 mps 752 mmHg 56%
    23:00 -6°C° 0 mm 1 mps 751 mmHg 56%

    Day after tomorrow, 17 November, Saturday

    Time Temperature Precipitation Wind Pressure Humidity
    00:00 -6°C° 0 mm 1 mps 751 mmHg 56%
    01:00 -7°C° 0 mm 1 mps 751 mmHg 56%
    02:00 -7°C° 0 mm 1 mps 751 mmHg 56%
    03:00 -7°C° 0 mm 1 mps 750 mmHg 55%
    04:00 -7°C° 0 mm 1 mps 750 mmHg 55%
    05:00 -7°C° 0 mm 1 mps 749 mmHg 54%
    06:00 -7°C° 0 mm 1 mps 749 mmHg 52%
    07:00 -7°C° 0 mm 1 mps 749 mmHg 51%
    08:00 -6°C° 0 mm 1 mps 748 mmHg 49%
    09:00 -6°C° 0 mm 1 mps 748 mmHg 46%
    10:00 -4°C° 0 mm 1 mps 748 mmHg 44%
    11:00 -3°C° 0 mm 1 mps 747 mmHg 43%
    12:00 -4°C° 0 mm 2 mps 746 mmHg 41%
    13:00 -3°C° 0 mm 2 mps 746 mmHg 39%
    14:00 -4°C° 0 mm 2 mps 746 mmHg 42%
    15:00 -5°C° 0 mm 2 mps 745 mmHg 46%
    16:00 -5°C° 0 mm 2 mps 745 mmHg 49%
    17:00 -6°C° 0 mm 2 mps 745 mmHg 50%
    18:00 -4°C° 0 mm 1 mps 744 mmHg 50%
    19:00 -4°C° 0 mm 1 mps 744 mmHg 51%
    20:00 -6°C° 0 mm 1 mps 744 mmHg 51%
    21:00 -6°C° 0 mm 1 mps 743 mmHg 51%
    22:00 -6°C° 0 mm 1 mps 743 mmHg 52%
    23:00 -6°C° 0 mm 1 mps 743 mmHg 52%

    18 November, Sunday

    Time Temperature Precipitation Wind Pressure Humidity
    00:00 -6°C° 0 mm 1 mps 743 mmHg 53%
    01:00 -6°C° 0 mm 1 mps 742 mmHg 53%
    02:00 -6°C° 0 mm 1 mps 742 mmHg 53%
    03:00 -6°C° 0 mm 1 mps 742 mmHg 54%
    04:00 -6°C° 0 mm 1 mps 742 mmHg 54%
    05:00 -6°C° 0 mm 1 mps 742 mmHg 54%
    06:00 -6°C° 0 mm 1 mps 742 mmHg 54%
    07:00 -6°C° 0 mm 1 mps 742 mmHg 54%
    08:00 -6°C° 0 mm 1 mps 742 mmHg 51%
    09:00 -4°C° 0 mm 1 mps 742 mmHg 49%
    10:00 -3°C° 0 mm 1 mps 742 mmHg 47%
    11:00 -3°C° 0 mm 1 mps 742 mmHg 45%
    12:00 -2°C° 0 mm 1 mps 742 mmHg 42%
    13:00 -1°C° 0 mm 1 mps 742 mmHg 39%
    14:00 -2°C° 0 mm 1 mps 742 mmHg 42%
    15:00 -2°C° 0 mm 1 mps 742 mmHg 45%
    16:00 -3°C° 0 mm 1 mps 743 mmHg 47%
    17:00 -3°C° 0 mm 1 mps 743 mmHg 47%
    18:00 -5°C° 0 mm 0 mps 743 mmHg 48%
    19:00 -5°C° 0 mm 0 mps 743 mmHg 48%
    20:00 -5°C° 0 mm 0 mps 743 mmHg 48%
    21:00 -5°C° 0 mm 0 mps 743 mmHg 47%
    22:00 -6°C° 0 mm 0 mps 743 mmHg 47%
    23:00 -6°C° 0 mm 0 mps 743 mmHg 47%

    19 November, Monday

    Time Temperature Precipitation Wind Pressure Humidity
    00:00 -6°C° 0 mm 0 mps 743 mmHg 47%
    01:00 -6°C° 0 mm 0 mps 743 mmHg 46%
    02:00 -6°C° 0 mm 0 mps 743 mmHg 46%
    03:00 -6°C° 0 mm 0 mps 743 mmHg 46%
    04:00 -6°C° 0 mm 1 mps 744 mmHg 46%
    05:00 -6°C° 0 mm 1 mps 744 mmHg 46%
    06:00 -6°C° 0 mm 1 mps 744 mmHg 47%
    07:00 -6°C° 0 mm 1 mps 744 mmHg 47%
    08:00 -4°C° 0 mm 1 mps 744 mmHg 47%
    09:00 -3°C° 0 mm 1 mps 744 mmHg 47%
    10:00 -2°C° 0 mm 1 mps 745 mmHg 46%
    11:00 -2°C° 0 mm 1 mps 745 mmHg 46%
    12:00 -1°C° 0 mm 1 mps 745 mmHg 46%
    13:00 0°C° 0 mm 1 mps 745 mmHg 46%
    14:00 -1°C° 0 mm 1 mps 745 mmHg 49%
    15:00 -1°C° 0 mm 1 mps 745 mmHg 51%
    16:00 -2°C° 0 mm 1 mps 745 mmHg 53%
    17:00 -4°C° 0 mm 2 mps 745 mmHg 55%
    18:00 -5°C° 0 mm 2 mps 745 mmHg 58%
    19:00 -5°C° 0 mm 2 mps 745 mmHg 60%
    20:00 -5°C° 0 mm 2 mps 745 mmHg 62%
    21:00 -3°C° 0 mm 1 mps 745 mmHg 65%
    22:00 -3°C° 0 mm 1 mps 745 mmHg 68%
    23:00 -4°C° 0 mm 1 mps 745 mmHg 71%

    20 November, Tuesday

    Time Temperature Precipitation Wind Pressure Humidity
    00:00 -4°C° 0 mm 1 mps 745 mmHg 73%
    01:00 -4°C° 0 mm 1 mps 745 mmHg 76%
    02:00 -4°C° 0 mm 1 mps 745 mmHg 78%
    03:00 -4°C° 0 mm 1 mps 745 mmHg 80%
    04:00 -4°C° 0 mm 1 mps 745 mmHg 82%
    05:00 -4°C° 0 mm 1 mps 745 mmHg 82%
    06:00 -6°C° 0 mm 1 mps 745 mmHg 83%
    07:00 -6°C° 0 mm 1 mps 745 mmHg 84%
    08:00 -4°C° 0 mm 1 mps 745 mmHg 81%
    09:00 -3°C° 0 mm 1 mps 745 mmHg 79%
    10:00 -3°C° 0 mm 1 mps 746 mmHg 77%
    11:00 -2°C° 0 mm 1 mps 746 mmHg 74%
    12:00 -2°C° 0 mm 0 mps 745 mmHg 71%
    13:00 -1°C° 0 mm 0 mps 745 mmHg 68%
    14:00 -2°C° 0 mm 0 mps 745 mmHg 72%
    15:00 -2°C° 0 mm 1 mps 745 mmHg 76%
    16:00 -3°C° 0 mm 1 mps 745 mmHg 80%
    17:00 -3°C° 0 mm 1 mps 745 mmHg 81%
    18:00 -4°C° 0 mm 1 mps 745 mmHg 83%
    19:00 -4°C° 0 mm 1 mps 745 mmHg 84%
    20:00 -5°C° 0 mm 0 mps 745 mmHg 85%
    21:00 -5°C° 0 mm 0 mps 745 mmHg 86%
    22:00 -6°C° 0 mm 0 mps 744 mmHg 86%
    23:00 -6°C° 0 mm 0 mps 744 mmHg 87%
    Show more